[[{"header":{"parameterUnit":"m.s-1","parameterCategory":1,"la1":30.2991,"la2":30.254,"lo1":-89.0895,"lo2":-89.0444,"dy":0.0017,"dx":0.0017,"nx":28,"ny":28,"refTime":"2025-06-21T03:00:00:Z","depth":0,"parameterNumber":2,"parameterNumberName":"U-component_of_WINDS"},"data":[0,0,0,0,0,0,0,0,0,0,0,0,0,0,0,0,0,0,0,0,0,0,0,0,0,0,0,0,0,0,0,0,0,0,0,0,0,0,0,0,0,0,0,0,0,0,0,0,0,0,0,0,0,0,0,0,0,0,-0.2319,-0.2318,0,-0.2302,-0.2302,-0.2302,-0.2277,-0.2277,-0.2276,-0.2276,-0.2261,-0.2261,-0.2261,0,0,0,0,0,0,0,0,0,0,0,0,0,-0.2331,-0.2331,-0.2319,-0.2318,-0.2318,-0.2302,-0.2302,-0.2302,-0.2277,-0.2277,-0.2276,-0.2276,-0.2261,-0.2261,-0.2261,0,0,0,0,0,0,0,0,0,0,0,0,0,-0.2321,-0.2331,-0.2319,-0.2304,-0.2302,-0.2303,-0.2302,-0.2302,-0.2277,-0.2277,-0.2276,-0.2275,-0.2261,-0.2261,-0.2261,-0.2275,0,0,-0.2261,-0.2261,0,0,0,0,0,0,0,0,-0.2322,-0.2321,-0.2306,-0.2305,-0.2303,-0.2291,-0.2301,-0.2293,-0.2277,-0.2287,-0.2276,-0.2275,-0.2272,-0.2271,-0.2269,-0.2274,-0.2274,-0.2261,-0.2261,-0.2261,-0.2261,0,0,0,0,0,0,0,-0.2322,-0.2321,-0.2312,-0.2306,-0.2304,-0.2299,-0.2297,-0.2299,-0.2283,-0.2286,-0.2284,-0.2282,-0.2271,-0.2269,-0.2269,-0.2274,-0.2261,-0.2261,-0.2261,-0.2261,-0.2291,-0.2292,0,0,0,0,0,0,-0.2325,-0.2322,-0.2313,-0.2312,-0.2311,-0.2299,-0.2297,-0.2296,-0.2283,-0.2281,-0.2283,-0.2281,-0.227,-0.2269,-0.2268,-0.2285,-0.2261,-0.2261,-0.2261,-0.229,-0.2291,-0.2292,0,0,0,0,0,0,-0.2325,-0.2324,-0.2313,-0.2316,-0.2315,-0.23,-0.2299,-0.2296,-0.2294,-0.2281,-0.2278,-0.2284,-0.2269,-0.2268,-0.2274,-0.2284,-0.2261,-0.2261,-0.2289,-0.229,-0.2291,-0.2317,0,0,0,0,0,0,-0.2326,-0.2325,-0.2329,-0.2317,-0.2315,-0.2319,-0.2299,-0.2296,-0.2294,-0.2292,-0.2282,-0.2279,-0.2268,-0.2274,-0.2274,-0.2283,-0.2261,-0.2288,-0.229,-0.2291,-0.2315,-0.2319,-0.2322,0,0,0,0,0,-0.2326,-0.2337,-0.2329,-0.2328,-0.232,-0.2319,-0.2318,-0.2305,-0.2295,-0.23,-0.2292,-0.228,-0.2283,-0.2275,-0.2274,-0.2284,-0.2288,-0.2289,-0.2291,-0.2314,-0.2318,-0.2322,0,0,0,0,0,0,-0.2351,-0.2335,-0.2326,-0.2333,-0.2328,-0.2315,-0.232,-0.231,-0.2307,-0.2305,-0.229,-0.2288,-0.2296,-0.229,-0.2282,-0.2298,-0.2283,-0.2285,-0.2301,-0.2305,-0.2308,-0.231,-0.2262,0,0,0,0,0,-0.2357,-0.2358,-0.2344,-0.2351,-0.2349,-0.2335,-0.2335,-0.2325,-0.2319,-0.2317,-0.2309,-0.2304,-0.2304,-0.2304,-0.2303,-0.2315,-0.2313,-0.2321,-0.2325,-0.2328,-0.233,-0.2337,-0.2341,-0.2297,-0.2297,-0.2297,0,0,-0.237,-0.2362,-0.2363,-0.2356,-0.2351,-0.2352,-0.2333,-0.2336,-0.2337,-0.2317,-0.2322,-0.2316,-0.231,-0.2319,-0.2322,-0.2315,-0.2341,-0.233,-0.2332,-0.2332,-0.2339,-0.2343,-0.2347,-0.2299,-0.2298,-0.2298,0,0,-0.2395,-0.2388,-0.2394,-0.2389,-0.2381,-0.2372,-0.2374,-0.2363,-0.2358,-0.2363,-0.2348,-0.235,-0.235,-0.2346,-0.2345,-0.2369,-0.2359,-0.237,-0.2388,-0.2395,-0.2398,-0.2401,-0.2411,-0.2415,-0.2371,-0.2372,-0.2372,0,-0.2412,-0.2413,-0.2399,-0.2402,-0.24,-0.2382,-0.2389,-0.2385,-0.2377,-0.2377,-0.2368,-0.2369,-0.2363,-0.2372,-0.2378,-0.2377,-0.2379,-0.2371,-0.2399,-0.2401,-0.2404,-0.2413,-0.2417,-0.2373,-0.2373,-0.2373,-0.2372,0,-0.2436,-0.2437,-0.2443,-0.2436,-0.2435,-0.244,-0.2427,-0.2427,-0.2418,-0.2411,-0.2417,-0.2409,-0.2407,-0.2409,-0.24,-0.2416,-0.2412,-0.2401,-0.2386,-0.241,-0.2418,-0.2422,-0.2375,-0.2374,-0.2374,-0.2374,0,0,-0.2475,-0.246,-0.2463,-0.246,-0.2451,-0.2452,-0.2457,-0.2454,-0.2456,-0.2451,-0.2456,-0.2457,-0.2447,-0.2445,-0.2436,-0.2442,-0.2464,-0.2431,-0.2431,-0.2438,-0.2483,-0.2492,-0.2496,-0.2457,-0.2457,-0.2458,-0.2484,0,-0.2498,-0.2505,-0.2493,-0.2503,-0.2505,-0.2488,-0.2492,-0.2488,-0.2481,-0.2482,-0.2475,-0.2476,-0.2463,-0.2462,-0.2467,-0.246,-0.2473,-0.2458,-0.2462,-0.2462,-0.2464,-0.25,-0.2509,-0.2534,-0.2487,-0.2488,-0.2488,0,-0.2526,-0.2523,-0.2534,-0.2525,-0.2525,-0.2529,-0.2527,-0.2528,-0.2523,-0.2517,-0.2516,-0.2505,-0.251,-0.2496,-0.2504,-0.2494,-0.2495,-0.2492,-0.2493,-0.2493,-0.2477,-0.2503,-0.2542,-0.2546,-0.2493,-0.2493,-0.2492,0,-0.2556,-0.2554,-0.256,-0.2558,-0.2548,-0.2551,-0.2547,-0.2541,-0.2541,-0.2539,-0.2539,-0.2538,-0.2538,-0.2538,-0.2528,-0.2518,-0.2537,-0.2522,-0.2534,-0.2535,-0.2539,-0.2539,-0.258,-0.2539,-0.2539,-0.2539,-0.2539,0,-0.2583,-0.2591,-0.2574,-0.2578,-0.2586,-0.2572,-0.2581,-0.2575,-0.257,-0.2573,-0.2559,-0.2563,-0.2548,-0.2551,-0.2543,-0.2552,-0.2551,-0.2548,-0.2546,-0.255,-0.255,-0.2551,-0.2549,-0.254,-0.254,-0.2539,-0.2539,0,-0.2617,-0.2606,-0.2612,-0.2602,-0.2599,-0.2606,-0.2597,-0.2601,-0.2594,-0.2599,-0.2599,-0.2588,-0.259,-0.2579,-0.258,-0.2575,-0.2588,-0.2582,-0.259,-0.2588,-0.2602,-0.2601,-0.2645,-0.2651,-0.2605,-0.2605,-0.2605,0,-0.2636,-0.2641,-0.2632,-0.2633,-0.2629,-0.2631,-0.2631,-0.2618,-0.2618,-0.2614,-0.2619,-0.262,-0.262,-0.2625,-0.2617,-0.2618,-0.2613,-0.2628,-0.2613,-0.2617,-0.2614,-0.2615,-0.2616,-0.2632,-0.2632,-0.2633,-0.2633,0,-0.2671,-0.2666,-0.2665,-0.2664,-0.2664,-0.2663,-0.266,-0.2662,-0.2648,-0.2649,-0.2652,-0.2652,-0.2653,-0.2654,-0.2654,-0.265,-0.264,-0.2638,-0.2641,-0.2645,-0.265,-0.2649,-0.2599,-0.2637,-0.2637,-0.2636,-0.2636,-0.2636,-0.2699,-0.2703,-0.2697,-0.2698,-0.2695,-0.2693,-0.2697,-0.269,-0.2691,-0.269,-0.2683,-0.2687,-0.2683,-0.2681,-0.2678,-0.2682,-0.2675,-0.2679,-0.268,-0.2682,-0.2685,-0.2648,-0.2682,-0.2682,-0.2681,-0.2681,-0.2681,0,-0.2734,-0.273,-0.2731,-0.2727,-0.2729,-0.2718,-0.2715,-0.2717,-0.272,-0.2717,-0.2718,-0.2721,-0.2723,-0.2715,-0.2717,-0.2721,-0.2716,-0.2722,-0.2722,-0.2721,-0.269,-0.2688,-0.2726,-0.2726,-0.2726,-0.2726,-0.2726,-0.2726,-0.2753,-0.276,-0.2754,-0.276,-0.2756,-0.2759,-0.2758,-0.2757,-0.2754,-0.2758,-0.276,-0.2755,-0.2751,-0.2751,-0.2753,-0.2751,-0.2753,-0.276,-0.2757,-0.2728,-0.2723,-0.2719,-0.2717,-0.276,-0.276,-0.2787,-0.2788,-0.2788]},{"header":{"parameterUnit":"m.s-1","parameterCategory":1,"la1":30.2991,"la2":30.254,"lo1":-89.0895,"lo2":-89.0444,"dy":0.0017,"dx":0.0017,"nx":28,"ny":28,"refTime":"2025-06-21T03:00:00:Z","depth":0,"parameterNumber":3,"parameterNumberName":"V-component_of_WINDS"},"data":[0,0,0,0,0,0,0,0,0,0,0,0,0,0,0,0,0,0,0,0,0,0,0,0,0,0,0,0,0,0,0,0,0,0,0,0,0,0,0,0,0,0,0,0,0,0,0,0,0,0,0,0,0,0,0,0,0,0,3.3993,3.3993,0,3.3979,3.3979,3.3979,3.3946,3.3945,3.3944,3.3944,3.393,3.393,3.393,0,0,0,0,0,0,0,0,0,0,0,0,0,3.3992,3.3992,3.3993,3.3993,3.3993,3.3979,3.3979,3.3979,3.3946,3.3945,3.3944,3.3943,3.393,3.393,3.393,0,0,0,0,0,0,0,0,0,0,0,0,0,3.3986,3.3992,3.3993,3.3975,3.3973,3.3979,3.3979,3.3979,3.3946,3.3945,3.3944,3.3943,3.393,3.393,3.3931,3.3954,0,0,3.3932,3.3932,0,0,0,0,0,0,0,0,3.3987,3.3987,3.3977,3.3976,3.3974,3.3963,3.3973,3.397,3.3946,3.3956,3.3944,3.3942,3.3942,3.3941,3.3941,3.3953,3.3953,3.3932,3.3932,3.3932,3.3932,0,0,0,0,0,0,0,3.3987,3.3987,3.3987,3.3977,3.3975,3.3967,3.3965,3.3973,3.3955,3.3955,3.3953,3.3952,3.3941,3.3941,3.394,3.3952,3.3932,3.3932,3.3932,3.3933,3.3984,3.3985,0,0,0,0,0,0,3.399,3.3987,3.3988,3.3987,3.3978,3.3968,3.3966,3.3968,3.3955,3.3952,3.3952,3.395,3.394,3.394,3.394,3.3966,3.3932,3.3933,3.3933,3.3983,3.3984,3.3985,0,0,0,0,0,0,3.399,3.399,3.3988,3.3987,3.3986,3.3969,3.3971,3.3968,3.3968,3.3953,3.3949,3.3956,3.3939,3.3939,3.3951,3.3965,3.3933,3.3933,3.3981,3.3983,3.3985,3.402,0,0,0,0,0,0,3.399,3.3991,3.3999,3.3987,3.3986,3.4,3.3972,3.3968,3.3968,3.3965,3.3955,3.3952,3.3939,3.395,3.3951,3.3965,3.3934,3.398,3.3982,3.3984,3.4017,3.4022,3.4027,0,0,0,0,0,3.399,3.401,3.4,3.4,3.3996,3.4,3.4,3.3984,3.397,3.3978,3.3969,3.3952,3.3964,3.3952,3.3952,3.3967,3.3979,3.3982,3.3984,3.4015,3.4021,3.4027,0,0,0,0,0,0,3.4024,3.4008,3.3997,3.4012,3.4008,3.3995,3.4005,3.3991,3.3991,3.3988,3.3968,3.3966,3.398,3.3975,3.3962,3.3989,3.3969,3.3972,3.3992,3.3998,3.4003,3.4004,3.3934,0,0,0,0,0,3.4033,3.4038,3.4023,3.4039,3.4037,3.4022,3.4023,3.4011,3.4006,3.4004,3.3995,3.3991,3.3993,3.3996,3.3997,3.4017,3.4014,3.4027,3.4032,3.4036,3.4038,3.4049,3.4054,3.3994,3.3994,3.3993,0,0,3.4052,3.4044,3.4048,3.4045,3.404,3.4046,3.402,3.4027,3.4031,3.4005,3.4015,3.4009,3.4003,3.4019,3.4025,3.4014,3.4055,3.4039,3.4042,3.4043,3.4052,3.4057,3.4063,3.3995,3.3995,3.3995,0,0,3.4089,3.4084,3.4096,3.4092,3.4085,3.4075,3.4078,3.4067,3.4062,3.4072,3.4052,3.4057,3.4062,3.4058,3.4057,3.4095,3.4079,3.4096,3.4121,3.4131,3.4136,3.414,3.4153,3.4158,3.4098,3.4098,3.4098,0,3.4114,3.4121,3.4104,3.4112,3.4111,3.4088,3.4101,3.4098,3.4092,3.4092,3.4081,3.4087,3.4081,3.4096,3.4105,3.4105,3.4108,3.4096,3.4136,3.414,3.4144,3.4156,3.4161,3.41,3.41,3.41,3.41,0,3.4151,3.4157,3.4168,3.4163,3.4163,3.4174,3.4159,3.4162,3.415,3.4141,3.4152,3.4145,3.4144,3.4147,3.4136,3.4161,3.4154,3.414,3.4119,3.4152,3.4163,3.4168,3.4103,3.4103,3.4102,3.4101,0,0,3.4208,3.4194,3.4199,3.4196,3.4188,3.4192,3.4201,3.4201,3.4204,3.4201,3.4209,3.4214,3.4201,3.4199,3.4188,3.4197,3.4227,3.4181,3.4181,3.419,3.4254,3.4264,3.427,3.4217,3.4218,3.4219,3.4254,0,3.4243,3.4259,3.4244,3.4262,3.4267,3.4246,3.4254,3.425,3.4242,3.4245,3.4237,3.4241,3.4223,3.4222,3.423,3.4221,3.4239,3.4219,3.4224,3.4224,3.4226,3.4276,3.4287,3.4321,3.4258,3.4259,3.426,0,3.4286,3.4285,3.4304,3.4294,3.4296,3.4304,3.4303,3.4306,3.4301,3.4295,3.4294,3.428,3.4289,3.4269,3.4281,3.4268,3.4269,3.4265,3.4266,3.4266,3.4244,3.4277,3.4331,3.4336,3.4267,3.4266,3.4265,0,3.4326,3.4329,3.4341,3.434,3.4329,3.4335,3.4331,3.4325,3.4326,3.4325,3.4326,3.4326,3.4326,3.4327,3.4314,3.43,3.4328,3.4307,3.4323,3.4324,3.4329,3.4329,3.4385,3.4331,3.4331,3.4331,3.4331,0,3.4366,3.4378,3.4359,3.4366,3.4379,3.4363,3.4376,3.437,3.4365,3.4371,3.4353,3.4359,3.4341,3.4345,3.4335,3.4347,3.4347,3.4342,3.4339,3.4344,3.4344,3.4344,3.4341,3.4332,3.4332,3.4332,3.4331,0,3.4412,3.44,3.4411,3.44,3.4398,3.4408,3.4399,3.4405,3.4397,3.4404,3.4405,3.4392,3.4396,3.4383,3.4385,3.4378,3.4395,3.4388,3.4397,3.4395,3.4412,3.441,3.4469,3.4476,3.4418,3.4418,3.4419,0,3.4439,3.4448,3.4438,3.444,3.4437,3.4442,3.4443,3.4427,3.4429,3.4424,3.4431,3.4434,3.4435,3.4443,3.4433,3.4435,3.4428,3.4448,3.4428,3.4432,3.4428,3.4428,3.4428,3.4452,3.4453,3.4454,3.4454,0,3.4487,3.448,3.4482,3.4482,3.4484,3.4484,3.4482,3.4485,3.4468,3.4471,3.4475,3.4476,3.4479,3.4481,3.4481,3.4477,3.4463,3.4461,3.4465,3.4469,3.4473,3.4471,3.4408,3.4459,3.4459,3.4459,3.4458,3.4458,3.4524,3.4531,3.4525,3.4528,3.4525,3.4524,3.453,3.4522,3.4525,3.4525,3.4516,3.4522,3.4517,3.4516,3.4513,3.4518,3.4508,3.4514,3.4515,3.4517,3.452,3.4473,3.4518,3.4517,3.4517,3.4517,3.4517,0,3.4571,3.4566,3.4569,3.4567,3.457,3.4557,3.4554,3.4557,3.4563,3.456,3.4561,3.4566,3.4569,3.456,3.4562,3.4567,3.4561,3.4568,3.4568,3.4567,3.4528,3.4524,3.4573,3.4573,3.4573,3.4573,3.4573,3.4573,3.4596,3.4607,3.46,3.461,3.4605,3.4611,3.4611,3.461,3.4607,3.4613,3.4616,3.461,3.4604,3.4606,3.4608,3.4605,3.4607,3.4616,3.4611,3.4575,3.457,3.4564,3.4561,3.4617,3.4617,3.465,3.465,3.465]}]]